Regional Weather Roundup
Issued by NWS

Home | Current Version | Previous Version | Graphics & Text | Print | Product List | Glossary On
Versions: 1 2 3 4 5 6 7 8 9 10 11 12 13 14 15 16 17 18 19 20 21 22 23 24 25 26 27 28 29 30 31 32 33 34 35 36 37 38 39 40 41 42 43 44 45 46 47 48 49 50
673
ASUS45 KSLC 200310
RWRUT

UTAH REGIONAL WEATHER ROUNDUP
NATIONAL WEATHER SERVICE SALT LAKE CITY UT
800 PM MST SUN FEB 19 2017

UTZ001>011-023>025-200400-

NORTHERN UTAH

CITY           SKY/WX    TMP DP  RH WIND       PRES   REMARKS
BRIGHAM CITY     N/A     45  34  66 SE3       29.84R
HILL AFB       PTCLDY    43  34  70 CALM      29.84R
LOGAN          PTCLDY    40  33  76 N5        29.84
OGDEN          PTCLDY    41  35  79 E3        29.83R
SALT LAKE CITY PTCLDY    46  39  76 E13       29.83R
TOOELE VALLEY  CLEAR     41  36  81 SE12      29.84R
WENDOVER       CLEAR     46  27  46 NW12      29.81R
HEBER CITY     MOCLDY    34  32  93 CALM      29.85R
WEST JORDAN    PTCLDY    45  44  99 SW6       29.85R

$$

UTZ011>015-024>027-200400-

CENTRAL/NORTHEAST UTAH

CITY           SKY/WX    TMP DP  RH WIND       PRES   REMARKS
PROVO AIRPORT  PTCLDY    37  35  92 CALM      29.86R
MOAB/CANYONLAN MOCLDY    44  41  89 S6        29.87
DELTA          CLEAR     43  36  75 S20G25    29.86R
PRICE          CLOUDY    37  36  96 NE3       29.87R
RICHFIELD      CLEAR     46  30  53 SW12G17   29.90R
ROOSEVELT      PTCLDY    37  36  93 N3        29.88R
VERNAL         CLOUDY    36  34  92 CALM      29.87R

$$

UTZ013>016-019>022-027-200400-

SOUTHERN UTAH

CITY           SKY/WX    TMP DP  RH WIND       PRES   REMARKS
BRYCE CANYON   CLOUDY    34  27  75 W10       29.96R WCI  26
CEDAR CITY     CLOUDY    40  35  83 SW13      29.95R WCI  32
MILFORD        CLEAR     43  34  70 S20       29.91R
ST GEORGE      MOCLDY    50  44  80 S5        29.97R
HANKSVILLE     CLEAR     36  34  93 E3        29.90R
KANAB          PTCLDY    43  36  75 W8        30.02R
BLANDING       CLOUDY    40  36  85 SW9       29.98R WCI  34

$$

REGIONAL REPORTS     COLORADO/ARIZONA

CITY           SKY/WX    TMP DP  RH WIND       PRES   REMARKS
CRAIG, CO      CLOUDY    34  31  88 SW9       29.88R WCI  27
GRAND JUNCTION LGT RAIN  41  41 100 NW6       29.90R
RIFLE, CO      CLOUDY    40  37  89 SW8       29.87R WCI  34
MONTROSE, CO   CLOUDY    42  32  67 N6        29.90R
CORTEZ, CO     CLOUDY    39  37  92 N3        29.93R
COLORADO CITY  CLOUDY    45  39  81 NW3       30.02R
PAGE, AZ       CLEAR     48  34  58 NW6       29.93R
GRAND CANYON   LGT RAIN  37  37 100 SW10      30.01R WCI  30
KINGMAN, AZ    CLOUDY    50  41  71 SW10      30.01R
FLAGSTAFF, AZ  CLOUDY    34  32  92 SW7       30.02R WCI  28

$$

REGIONAL REPORTS    NEVADA/IDAHO/WYOMING

CITY           SKY/WX    TMP DP  RH WIND       PRES   REMARKS
LAS VEGAS, NV  PTCLDY    57  39  51 S7        29.93R
ELY, NY        PTCLDY    38  30  73 SE8       29.90R WCI  32
ELKO, NV       PTCLDY    39  27  62 N6        29.79R WCI  35
POCATELLO, ID  CLOUDY    37  30  75 S9        29.83R WCI  30
BURLEY, ID     MOCLDY    41  32  70 S7        29.80R
FORT BRIDGER,  MOCLDY    32  31  96 W7        29.88R WCI  26
EVANSTON, WY   FLURRIES  32  27  81 W22       29.86R WCI  19
ROCK SPRINGS,  CLOUDY    31  28  89 S9        29.83R WCI  23
KEMMERER, WY     N/A     28  23  80 W13       29.85R WCI  18

$$




USA.gov is the U.S. government's official web portal to all federal, state and local government web resources and services.